Change the Weather History Date:

Tuesday, April 23, 2013

  Actual Average Record
Temperature  
Mean Temperature 26 °F 25 °F  
Max Temperature 27 °F 31 °F 57 °F (1940)
Min Temperature 25 °F 18 °F -20 °F (1976)
Degree Days  
Heating Degree Days 39 40  
Month to date heating degree days 1184 1070  
Since 1 July heating degree days 12473 12048  
Cooling Degree Days 0    
Month to date cooling degree days 0  
Year to date cooling degree days 0  
Moisture  
Dew Point 24 °F    
Average Humidity 0    
Maximum Humidity 0    
Minimum Humidity 0    
Precipitation  
Precipitation T in 0.02 in 0.31 in (1931)
Month to date precipitation 0.25 0.56  
Year to date precipitation 2.41 3.08  
Snow  
Snow T in 0.20 in 3.10 in (1931)
Month to date snowfall 3.9 6.1  
Since 1 July snowfall 54.3 71.7  
Snow Depth 15.00 in    
Sea Level Pressure  
Sea Level Pressure 30.43 in    
Wind  
Wind Speed 5 mph (WSW)    
Max Wind Speed 10 mph    
Max Gust Speed 14 mph    
Visibility 10 miles    
Events Snow    
T = Trace of Precipitation, MM = Missing Value Source: NWS Daily Summary

Daily Weather History Graph

Daily Weather History Graph

Search for Another Location

Airport or City:

Trip Planner

Search our weather history database for the weather conditions in past years. The results will help you decide how hot, cold, wet, or windy it might be!

Date:

Astronomy

Apr. 23, 2013 Rise Set
Actual Time 6:57 AM AKDT 11:04 PM AKDT
Civil Twilight 5:55 AM AKDT 12:08 AM AKDT
Nautical Twilight 3:58 AM AKDT 2:13 AM AKDT
Astronomical Twilight Sun does not rise Sun does not rise
Moon 8:40 PM AKDT (4/23) 6:20 AM AKDT (4/23)
Length of Visible Light 18h 12m
Length of Day
16h 06m
Waxing Gibbous, 95% of the Moon is Illuminated
Apr 23
Waxing Gibbous
Apr 25
Full
May 2
Last Quarter
May 9
New
May 17
First Quarter

Hourly Weather History & Observations

Time (AKDT) Temp. Windchill Dew Point Humidity Pressure Visibility Wind Dir Wind Speed Gust Speed Precip Events Conditions
12:53 AM 25.0 °F - 24.1 °F 96% 30.44 in 6.0 mi Calm Calm - N/A   Overcast
1:53 AM 25.0 °F - 24.1 °F 96% 30.43 in 10.0 mi Calm Calm - N/A   Overcast
2:23 AM 24.8 °F - 24.8 °F 100% 30.43 in 10.0 mi Calm Calm - N/A   Overcast
2:53 AM 25.0 °F - 24.1 °F 96% 30.44 in 10.0 mi Calm Calm - N/A   Overcast
3:39 AM 24.8 °F 19.1 °F 24.8 °F 100% 30.44 in 10.0 mi WNW 4.6 mph - N/A   Overcast
3:53 AM 25.0 °F - 24.1 °F 96% 30.44 in 10.0 mi Calm Calm - N/A   Overcast
4:53 AM 26.1 °F 16.8 °F 24.1 °F 92% 30.45 in 10.0 mi West 9.2 mph - N/A   Overcast
5:53 AM 26.1 °F 19.4 °F 24.1 °F 92% 30.45 in 9.0 mi West 5.8 mph - 0.00 in Snow Light Snow
6:53 AM 26.1 °F 19.4 °F 24.1 °F 92% 30.43 in 10.0 mi WNW 5.8 mph - 0.00 in   Overcast
7:53 AM 26.1 °F - 24.1 °F 92% 30.44 in 10.0 mi Calm Calm - N/A   Overcast
8:53 AM 27.0 °F 23.0 °F 24.1 °F 89% 30.44 in 10.0 mi SSW 3.5 mph - 0.00 in   Overcast
9:53 AM 27.0 °F 21.6 °F 24.1 °F 89% 30.44 in 10.0 mi SW 4.6 mph - N/A   Overcast
10:53 AM 26.1 °F 19.4 °F 24.1 °F 92% 30.45 in 10.0 mi SSW 5.8 mph - N/A   Overcast
11:53 AM 26.1 °F 18.4 °F 24.1 °F 92% 30.45 in 10.0 mi SW 6.9 mph - N/A   Overcast
12:53 PM 26.1 °F 19.4 °F 23.0 °F 88% 30.46 in 10.0 mi SW 5.8 mph - N/A   Overcast
1:53 PM 26.1 °F 19.4 °F 24.1 °F 92% 30.45 in 5.0 mi WSW 5.8 mph - 0.00 in Snow Light Snow
2:53 PM 26.1 °F 21.9 °F 24.1 °F 92% 30.45 in 10.0 mi Variable 3.5 mph - 0.00 in   Overcast
3:53 PM 26.1 °F 19.4 °F 24.1 °F 92% 30.44 in 10.0 mi South 5.8 mph - N/A   Overcast
4:53 PM 26.1 °F 19.4 °F 24.1 °F 92% 30.43 in 10.0 mi WSW 5.8 mph - N/A   Overcast
5:49 PM 26.6 °F 20.0 °F 24.8 °F 93% 30.42 in 10.0 mi WSW 5.8 mph - N/A   Overcast
5:53 PM 26.1 °F 21.9 °F 24.1 °F 92% 30.43 in 10.0 mi West 3.5 mph - N/A   Overcast
6:53 PM 26.1 °F 19.4 °F 24.1 °F 92% 30.42 in 10.0 mi WSW 5.8 mph - N/A   Overcast
7:53 PM 26.1 °F 18.4 °F 24.1 °F 92% 30.41 in 10.0 mi SW 6.9 mph - N/A   Overcast
8:53 PM 26.1 °F 21.9 °F 24.1 °F 92% 30.40 in 10.0 mi WSW 3.5 mph - N/A   Overcast
9:53 PM 26.1 °F 20.5 °F 25.0 °F 96% 30.39 in 10.0 mi SSW 4.6 mph - N/A   Overcast
10:53 PM 27.0 °F 21.6 °F 26.1 °F 96% 30.39 in 10.0 mi WSW 4.6 mph - N/A   Overcast
11:53 PM 27.0 °F 20.5 °F 26.1 °F 96% 30.39 in 9.0 mi WSW 5.8 mph - 0.00 in Snow Light Snow